星链-3269 (STARLINK-3269 )

导读 | 豆包AI

STARLINK-3269是美国SpaceX星链计划中的卫星,于2021年12月18日发射入轨,属于Starlink星座组网卫星,主要为全球提供低延迟、高速率的宽带互联网服务。它运行在近地轨道,依托星座部署,助力实现全球范围的网络覆盖,尤其服务偏远地区与网络基础设施薄弱区域。

基本信息
目录编号:
50194
目录名称:
STARLINK-3269
国际标识:
2021-125AQ
轨道中心:
EARTH
卫星名称:
星链-3269
卫星全名:
星链-3269 (STARLINK-3269 )
卫星状态:
已陨落 最后检测时间 2026-03-05
发射日期:
2021-12-18 UTC
国别 :
美国 (US)
星等 :
--
轨道信息
数据来源 国际轨道数据
星历时间: 2026-03-06T00:08:36+0800
轨道信息已过期9天
半长轴: 6549.633km
偏心率: 0.0006903
轨道倾角: 53.188°
近地点辐角 320.118°
升交点赤经 150.604°
平近点角 39.936°
近地点: 166.974km
远地点: 176.018km
周期: 87.919分钟
每日圈数: 16.378621
详细信息
固有亮度:
5
最大亮度:
2.5
卫星平台:
Starlink v1.5
覆盖范围:
全球
运营商:
太空探索技术公司
运营商所在国:
美国
制造商(研发单位):
太空探索技术公司
制造商所在国:
美国
使用方式:
暂无
卫星简介
星链(Starlink)计划是由太空探索技术公司(SpaceX)提出的一个巨型低轨卫星互联网星座项目,计划在2019年至2024年间在太空搭建由约1.2万颗卫星组成的“星链”网络,其中1584颗将部署在地球上空550千米处的近地轨道,并从2020年开始工作。该卫星仍在工作。